Home > Time Zones > World Clock > Weather > U.S.A. > Erie > Past weeks

Flag for U.S.A. Weather past 2 weeks in Erie, Pennsylvania, U.S.A.

Now
32 °F

Light snow. Mostly cloudy.


Feels Like: 22 °F
Forecast: 31 / 34 °F
Wind: 15 mph from West

Location: Erie International Airport

Current Time: Dec 17, 2014 at 9:36:23 PM

Latest Report: Dec 17, 2014 at 8:51 PM


Visibility: 8 mi

Pressure: 30.09 "Hg

Humidity: 73%

Dew point: 24 °F

Location of ErieLocation

Historic Weather in Erie — Graph

°F

Erie temperature yesterday

Maximum temperature yesterday: 50 °F (at 2:51 PM)
Minimum temperature yesterday: 37 °F (at 2:51 AM)
Average temperature yesterday: 45 °F

Past Weeks' High & Low Weather Summary

 TemperatureHumidityPressure
High50 °F (Dec 16, 2:51 PM)93% (Dec 5, 11:51 PM)30.71 "Hg (Dec 5, 11:51 PM)
Low25 °F (Dec 4, 10:51 PM)27% (Dec 8, 8:51 AM)29.69 "Hg (Dec 16, 1:51 PM)
Average37 °F75%30.15 "Hg
* Reported Dec 2 7:51 PM — Dec 17 7:51 PM, Erie, Weather by CustomWeather, © 2014

Note: Actual official high and low records may vary slightly from our data, if they occured in-between our weather recording intervals... More about our weather records

Advertising

Erie weather history for previous 24 hours

 ConditionsComfort  
Time TempWeatherWind HumidityBarometerVisibility
7:51 PM
Dec 17
33 °FOvercast.14 mph66%30.08 "Hg10 mi
6:51 PM33 °FOvercast.17 mph66%30.08 "Hg10 mi
5:51 PM33 °FOvercast.20 mph66%30.06 "Hg10 mi
4:51 PM33 °FOvercast.16 mph70%30.05 "Hg10 mi
3:51 PM33 °FOvercast.15 mph72%30.04 "Hg10 mi
2:51 PM33 °FOvercast.14 mph75%30.04 "Hg10 mi
1:51 PM34 °FMostly cloudy.18 mph73%30.03 "Hg10 mi
12:51 PM34 °FOvercast.17 mph76%30.02 "Hg10 mi
11:51 AM35 °FOvercast.15 mph78%30.02 "Hg10 mi
10:55 AM35 °FMostly cloudy.14 mph85%30.01 "Hg10 mi
10:01 AM36 °FCloudy.15 mph82%30.00 "Hg10 mi
8:51 AM36 °FMostly cloudy.20 mph85%29.99 "Hg10 mi
7:51 AM36 °FLight snow. Fog.16 mph85%29.97 "Hg4 mi
6:51 AM37 °FLight rain. Low clouds.18 mph86%29.95 "Hg9 mi
5:51 AM38 °FLight rain. Mostly cloudy.18 mph86%29.92 "Hg9 mi
4:51 AM38 °FLight rain. Fog.16 mph90%29.91 "Hg6 mi
3:51 AM39 °FLight rain. Fog.16 mph89%29.90 "Hg4 mi
2:51 AM40 °FFog.18 mph86%29.88 "Hg5 mi
1:51 AM42 °FLight rain. Mostly cloudy.17 mph82%29.86 "Hg10 mi
12:51 AM43 °FLight rain. Mostly cloudy.17 mph86%29.85 "Hg10 mi
11:51 PM
Dec 16
44 °FLight rain. Fog.18 mph85%29.84 "Hg6 mi
10:51 PM44 °FLight rain. Fog.10 mph89%29.83 "Hg4 mi
9:51 PM44 °FLight rain. Overcast.10 mph89%29.82 "Hg7 mi
Weather by CustomWeather, © 2014

See weather overviewHow to use our weather pages